Location: Maiden
(35.5760°N, 81.2120°W)
Time: 07:14:43
(UTC-05:00)

Daily predictions for brighter satellites

Satellite Brightness Start Highest point End
(mag) Time Altitude Azimuth Time Altitude Azimuth Time Altitude Azimuth
Cosmos 1943 Rocket 2.3 17:58:55 10° NNW 18:04:32 85° WSW 18:10:03 10° SSE
Cosmos 1300 2.7 18:02:51 10° N 18:06:40 61° E 18:10:26 10° SSE
Cosmos 1766 Rocket 3.5 18:12:53 10° S 18:17:10 65° E 18:21:27 10° NNE
IRAS Rocket 4.3 18:11:50 10° SSE 18:17:21 88° WSW 18:22:57 10° NNW
Cosmos 44 Rocket 3.3 18:12:54 10° SSW 18:17:33 83° WNW 18:22:18 10° NNE
Cosmos 2366 rocket 4.0 18:14:05 10° N 18:20:15 63° E 18:26:20 10° SSE
FENGYUN 3A 3.9 18:17:39 10° SE 18:22:43 46° ENE 18:27:48 10° N
Cosmos 1777 Rocket 4.2 18:19:19 10° N 18:24:23 47° ENE 18:29:27 10° SE
SL-14 R/B 4.3 18:21:17 10° SSW 18:25:09 49° W 18:29:00 10° N
CZ-4 R/B 4.4 18:21:10 10° SSE 18:25:16 74° ENE 18:29:24 10° N
SPOT 3 Rocket 4.0 18:21:17 10° SE 18:26:00 38° ENE 18:30:45 10° N
ASTRO E2 3.5 18:25:06 10° WSW 18:28:54 44° S 18:32:34 11° ESE
MTI 3.7 18:26:14 10° NNE 18:29:27 68° ESE 18:32:36 10° S
Cosmos 1726 4.4 18:27:29 10° NNW 18:30:38 28° W 18:33:48 10° SSW
SKYMED 2 3.6 18:28:30 10° NNE 18:32:52 89° WNW 18:37:12 10° SSW
METEOR-M 4.2 18:28:24 10° SSE 18:33:45 84° WSW 18:39:08 10° NNW
Cosmos 2058 3.4 18:31:07 10° SSE 18:34:59 38° E 18:38:53 10° NNE
Cosmos 1151 Rocket 4.0 18:32:06 10° NNE 18:35:47 25° ENE 18:39:25 10° SE
Nadezhda 3 Rocket 4.3 18:29:57 10° SSE 18:35:54 46° E 18:41:55 10° NNE
YAOGAN 1 2.7 18:31:45 10° S 18:36:03 78° W 18:40:24 10° NNW
ALOS 2.2 18:32:12 10° SSE 18:36:48 65° ENE 18:41:26 10° N
ATLAS 2AS CENTAUR R/B 4.5 18:31:10 10° NW 18:38:11 39° WSW 18:44:40 10° S
Cosmos 332 Rocket 4.0 18:33:46 10° S 18:38:28 50° ESE 18:43:12 10° NNE
MONITOR-E 4.1 18:44:03 10° S 18:47:04 87° WSW 18:50:08 10° NNW
CZ-4 R/B 3.4 18:45:44 10° SSW 18:49:35 34° W 18:53:28 10° NNW
Lacrosse 5 2.9 18:46:00 10° S 18:50:16 27° ESE 18:52:14 21° E
Meteor 1-11 4.3 18:48:24 10° S 18:53:58 80° W 18:59:39 10° N
H-2A R/B 3.1 18:51:26 10° SE 18:55:00 40° ENE 18:58:38 10° N
Meteor 1-27 4.2 18:49:50 10° N 18:55:35 73° E 19:01:22 10° SSE
COSMOS 2406 3.2 18:50:43 10° SSW 18:56:27 88° WNW 19:02:11 10° NNE
CZ-4C R/B 3.0 18:52:29 10° SSE 18:56:34 25° ESE 18:57:47 23° E
Cosmos 1346 Rocket 2.7 18:54:51 10° N 18:58:45 85° W 19:02:37 10° S
Cosmos 2151 2.8 18:55:22 10° S 18:59:35 75° E 19:03:53 10° N
NOSS 3-4 (A) 3.9 18:54:15 10° NNW 19:01:27 87° ENE 19:09:09 10° SSE
NOSS 3-4 (C) 3.8 18:54:21 10° NNW 19:01:33 86° ENE 19:09:15 10° SSE
Cosmos 1833 Rocket 4.2 19:00:07 10° SE 19:02:20 16° ESE 19:02:20 16° ESE
Cosmos 1455 2.1 19:00:19 10° N 19:04:08 63° E 19:07:53 10° SSE
Cosmos 2098 Rocket 4.0 19:00:23 10° N 19:06:05 89° E 19:13:02 10° S
Hubble Space Telescope 3.0 19:05:26 10° S 19:07:30 14° SSE 19:08:34 12° SE
OAO 3 Rocket 3.5 19:04:15 10° W 19:08:52 59° SSW 19:11:27 25° SE
FengYun 1-2 T 4.2 19:04:36 10° SSE 19:10:08 60° ENE 19:15:39 10° N
Cosmos 1515 Rocket 3.4 19:07:08 10° N 19:11:29 76° E 19:15:48 10° S
SEDSat Delta rocket 4.2 19:07:07 10° WSW 19:13:46 61° S 19:17:05 28° ESE
Cosmos 1626 4.4 19:11:46 10° SW 19:14:54 25° WNW 19:18:02 10° NNW
Cosmos 1570 Rocket 3.9 19:11:45 10° SSW 19:17:03 85° ESE 19:21:26 15° NNE
Cosmos 2239 Rocket 4.4 19:14:14 10° N 19:20:19 62° E 19:26:23 10° SSE
Cosmos 1500 Rocket 3.7 19:16:10 10° SSW 19:20:37 75° W 19:25:05 10° N
ISS -2.1 19:19:07 10° SSW 19:20:48 23° S 19:20:48 23° S
Cosmos 371 Rocket 3.7 19:18:35 10° SSW 19:23:19 62° WNW 19:27:38 13° N
Meteor 2-15 4.4 19:22:33 10° S 19:28:41 85° W 19:34:48 10° N
Tiangong 1 3.3 19:30:34 10° WNW 19:31:25 18° WNW 19:31:25 18° WNW
ERS-2 3.5 19:31:57 10° S 19:35:25 40° W 19:38:54 10° NNW
SL-27 R/B 3.6 19:33:06 10° SSW 19:35:07 34° SSW 19:35:07 34° SSW
Cosmos 2228 Rocket 4.2 19:35:42 10° NNW 19:40:04 45° W 19:44:25 10° SSW
Thor Agena Rocket 3.6 19:44:12 25° N 19:47:23 78° WNW 19:52:34 10° SSW
Cosmos 909 Rocket 4.2 19:53:37 10° NNW 20:00:08 71° WSW 20:04:07 23° SSE
Cosmos 2082 Rocket 3.4 20:16:36 10° SSW 20:19:36 33° SSW 20:19:36 33° SSW
Lacrosse 5 3.4 20:28:14 10° WSW 20:31:29 32° W 20:31:29 32° W
CZ-4C R/B 3.7 20:39:58 10° WSW 20:43:02 30° W 20:43:02 30° W
Cosmos 1833 Rocket 4.4 20:41:42 10° SW 20:44:07 25° SW 20:44:07 25° SW
